Terug naar catalogus

STARLINK-5994

ActiefCommunicatieVLEO
NORAD 56457·PAYLOAD·🇺🇸 United States

Gelanceerd May 10, 2023 vanaf Vandenberg Space Force Base

Loading…

Volgende Passages (komende 24 uur)

TLE

VersSource: CelesTrak SupGP

Epoch: Sep 14, 2026, 21:34 UTC

1 56457C 23064K   26257.89909722 -.00013093  00000+0 -10976-2 0  2579
2 56457  70.0029  27.4099 0003208 270.4063 222.1905 14.98323005    10

Volg STARLINK-5994 in realtime met AllMySat

Download on the App Store